Tracking 35055 objects as of 18-Aug-2026
HD Live streaming from Space Station
objects crossing your sky now

COSMOS 57 DEB


COSMOS 57 DEB is no longer on orbit


NORAD ID: 1190
Int'l Code: 1965-012CW
Launch date: February 22, 1965
Source: Commonwealth of Independent States (former USSR) (CIS)
Launch site: TYURATAM MISSILE AND SPACE COMPLEX (TTMTR)
Decay date: 1965-03-01

Note: This is SATELLITE DEBRIS
Your satellite tracking list
Your tracking list is empty




NASA's NSSDC Master Catalog

Two Line Element Set (TLE):
1 01190U 65012 CW 65056.61540173  .00546043 +70510-3 +00000-0 0  9992
2 01190 063.8649 287.5138 0227835 077.3775 285.1605 16.01040947000511
Source of the keplerian elements: AFSPC